Powered by GoogleTranslate

Occupational Safety and Health Administration OSHA

Accident Search Results

Description, Abstract, KeywordSICNAICSDate RangeOfficeInsp Nr
Keyword: "Guardrail"AllAllAllAllAll

By Date

Results 161 - 180 of 1809
Result Page: ... 4 5 6 7 8 9 10 11 12 13 ...
  # Summary Nr Event Date Report ID Fat SIC Event Description
161 014251458 04/22/1987 0453710 X 1711 Construction Employee Killed In Fall Through Floor Opening
162 014482202 05/05/1987 0316400 X 1741 Employee Killed In 40 Ft Fall Down Stairwell
163 000659623 05/08/1987 0111400 X 1791 Construction Employee Lost Balance And Fell One Floor; Died
164 014541965 05/15/1987 0418100 X 3089 Employee Killed In Fall Down Stairs During Loading Operation
165 014383053 06/04/1987 0521400 X 1629 Employee Killed In Fall From Bridge Platform
166 014236830 06/16/1987 0953210   1799 Employee Injured In Fall From Platform
167 014482210 06/19/1987 0316400 X 1799 Employee Killed In Fall From Work Platform On Bridge
168 014512081 06/25/1987 0625400 X 1629 Construction Employee Fell From A Cantilevered Sidewalk
169 014454029 07/06/1987 0751910 X 2087 Employee Killed In Fall From Storage Bin
170 014401061 07/13/1987 0626300 X 1771,1742,1741,1541,1711,1793,1761 Employee Killed In Fall From Roof
171 000893297 07/28/1987 0355114 X 1542 Employee Killed In 74 Foot Fall At Construction Site
172 014489355 07/30/1987 0215000 X 1711 Employee Killed In Fall From Scaffold
173 000691626 08/05/1987 0854910 X 7929 Employee Killed In Fall From Scissor Lift
174 000998906 08/13/1987 0552700   1791 Employee Injured In Fall Onto Steel Beam Support
175 000606939 08/19/1987 0418100 X 4512 Employee Killed When Scissors Lift Fell Over
176 014478283 10/07/1987 0111100   5169,3273 Employee Injured In 25 Ft Fall From Balcony
177 014485122 10/15/1987 0213600 X 1711 Employee Killed In Fall From Scaffold
178 014327886 10/16/1987 0316100 X 5812 Fell Through Suspended Ceiling
179 014517007 10/22/1987 0420600 X 8711 Employee Killed In Fall Through Temporary Railing
180 000712273 10/29/1987 1054116   1741 Construction Employee Injured In Fall From Third Floor Level

Thank You for Visiting Our Website

You are exiting the Department of Labor's Web server.

The Department of Labor does not endorse, takes no responsibility for, and exercises no control over the linked organization or its views, or contents, nor does it vouch for the accuracy or accessibility of the information contained on the destination server. The Department of Labor also cannot authorize the use of copyrighted materials contained in linked Web sites. Users must request such authorization from the sponsor of the linked Web site. Thank you for visiting our site. Please click the button below to continue.

Close